Location: Nelson
(41.2830°S, 173.2830°E)
Time: 04:04:35
(UTC+13:00)

Atlas Centaur 2 - Pass Details

Date: 24 January 2019
Orbit: 459 x 1311 km, 30.4° (Epoch: 16 October)

Event Time Altitude Azimuth Distance (km) Brightness Sun altitude
Rises 22:24:34 0° 293° (WNW) 4,201 6.1 -14.6°
Reaches altitude 10° 22:27:39 10° 300° (WNW) 3,290 5.5 -15.0°
Maximum altitude 22:35:20 39° 4° (N) 1,879 3.6 -16.1°
Enters shadow 22:39:54 23° 55° (NE) 2,461 4.0 -16.7°
